Regional Weather Roundup
Issued by NWS Goodland, KS

Home | Current Version | Previous Version | Graphics & Text | Print | Product List | Glossary On
Versions: 1 2 3 4 5 6 7 8 9 10 11 12 13 14 15 16 17 18 19 20 21 22 23 24 25 26 27 28 29 30 31 32 33 34 35 36 37 38 39 40 41 42 43 44 45 46 47 48 49 50
000
ASUS43 KGLD 180808
RWRGLD

GOODLAND FORECAST AREA HOURLY WEATHER ROUNDUP
NATIONAL WEATHER SERVICE GOODLAND KS
200 AM MDT SAT APR 18 2015

...OFFICIAL OBSERVATIONS...

CITY           SKY/WX    TMP DP  RH WIND       PRES   REMARKS
GOODLAND KS    MOCLDY    43  42  97 NW3       29.93F
HILL CITY KS   CLOUDY    52  48  86 N12       29.92F
IMPERIAL NEB   LGT RAIN  51  43  74 NE15      29.94F
MCCOOK NEB     RAIN      52  49  89 W9        29.97S FOG
AKRON CO       MOCLDY    39  39 100 N15       29.97F
BURLINGTON CO  MOCLDY    44  41  89 NW13      29.94F
LIMON CO       PTCLDY    34  33  96 NW12      29.98F
$$

...UNOFFICIAL OBSERVATIONS...

CITY           SKY/WX    TMP DP  RH WIND       PRES   REMARKS
COLBY KS       CLEAR     48  48 100 NE5       29.93S
GOVE KS          N/A     48  32  54 MISG        N/A
LENORA KS        N/A     51  32  48 MISG        N/A
NORTON KS      RAIN      54  48  82 W14       29.96S
SHARON SPRINGS   N/A     43  39  86 MISG        N/A
TRIBUNE KS     CLEAR     43  41  93 NW6       29.94F
KIT CARSON CO    N/A     41  38  87 MISG        N/A
$$



USA.gov is the U.S. government's official web portal to all federal, state and local government web resources and services.